User: anonymous   Login
Location: Unspecified
(0.0000°N, 0.0000°E)
Time: 16:24:15
(UTC+00:00)
Language:

Feng Yun - Orbit

View from above orbital plane
View from above orbital plane
View from above satellite
View from above satellite

Ground track
Ground track

The orbit data is extracted from the following two-line orbital elements,

1 24834U 97029A   24104.27518972 -.00000166  00000-0  00000-0 0  9994
2 24834  15.2562  11.5895 0101662 218.1038 342.0172  0.96050603 95767
Epoch (UTC): 13 April 2024 06:36:16
Eccentricity: 0.0101662
inclination: 15.2562°
perigee height: 36571 km
apogee height: 37454 km
right ascension of ascending node: 11.5895°
argument of perigee: 218.1038°
revolutions per day: 0.96050603
mean anomaly at epoch: 342.0172°
orbit number at epoch: 9576

The dashed part of the orbit path shows where the satellite is in the earth's shadow,  

DLR